Simultaneous Nadir Overpasses (SNOs) Predictions

Prediction of SNOs between GOES-16 and NOAA-19 Satellite Orbit:

Table of predicted SNOs for the next 14.0 days since TLE Epoch: 2/18/2023
Index Date Time (GOES-16) GOES-16 Lat,Lon NOAA-19 Lat,Lon Distance(km) Time Diff (sec)
1 02/19/2023 01:06:53 -0.00, -75.19 0.74, -71.91 373.25 80
2 02/21/2023 13:29:50 0.02, -75.22 0.39, -76.72 171.89 80
3 02/22/2023 13:15:13 0.02, -75.23 -0.29, -73.81 162.01 80
4 02/23/2023 13:03:15 0.02, -75.25 -0.98, -70.90 496.06 80
5 02/25/2023 01:38:14 -0.03, -75.26 -0.79, -78.65 386.54 80
6 02/26/2023 01:26:16 -0.02, -75.27 -0.12, -75.73 52.31 80
7 02/27/2023 01:11:39 -0.02, -75.29 0.55, -72.82 282.02 80
8 03/01/2023 13:34:33 0.02, -75.35 0.53, -77.63 259.35 80
9 03/02/2023 13:19:55 0.02, -75.37 -0.12, -74.70 75.69 80
10 03/03/2023 13:07:58 0.02, -75.39 -0.82, -71.80 410.88 80
